User: anonymous
Location: Albany
(35.0000°S, 118.0000°E)
Time: 17:55:13
(UTC-04:00)
Language:

Cosmos 2227 Rocket - Orbit

View from above orbital plane
View from above orbital plane
View from above satellite
View from above satellite

Ground track
Ground track

The orbit data is extracted from the following two-line orbital elements,

1 22285U 92093B   14272.97217148 -.00000198  00000-0 -77978-4 0  4174
2 22285 071.0200 131.5256 0005210 225.4610 134.6088 14.14924696122328
Epoch (UTC): 29 September 2014 23:19:55
Eccentricity: 0.0005210
inclination: 71.0200°
perigee height: 839 km
apogee height: 846 km
right ascension of ascending node: 131.5256°
argument of perigee: 225.4610°
revolutions per day: 14.14924696
mean anomaly at epoch: 134.6088°
orbit number at epoch: 12232

The dashed part of the orbit path shows where the satellite is in the earth's shadow,  

DLR